{"data":{"norad_id":57668,"epoch":"2026-05-25T04:23:05.760384Z","epoch_age_seconds":59454,"freshness":"FRESH","line1":"1 57668U 23124F   26145.18270556  .00000867  00000+0  41399-4 0  9996","line2":"2 57668  53.1598 211.7375 0001197  83.3509 276.7628 15.30194492155273","mean_motion":15.30194492,"eccentricity":0.0001197,"inclination_deg":53.1598,"raan_deg":211.7375,"arg_perigee_deg":83.3509,"mean_anomaly_deg":276.7628,"bstar":4.1399e-5,"rev_number":15527,"period_min":94.105684442628,"perigee_km":474.41116715254,"apogee_km":476.05186357512,"semimajor_km":6853.3685153638,"source":"CELESTRAK","updated_at":"2026-05-25T13:38:18.367608Z"}}